This is the latest recevied weather packets stored in our database for station/object KO4YAW. If no packets are shown the sender has not sent any weather packets the latest 10 day(s).
| Time | Temp. | Humidity | Pressure | Rain* | Wind** | Luminosity | Snow |
|---|---|---|---|---|---|---|---|
| 1777765532 | 22.78° C | 10% | 1017.2 hPa | 0 mm | - | 308 W/m² | - |
| 1777764632 | 22.22° C | 10% | 1017.2 hPa | 0 mm | - | 365 W/m² | - |
| 1777763732 | 22.78° C | 11% | 1017.5 hPa | 0 mm | - | 420 W/m² | - |
| 1777762832 | 22.78° C | 11% | 1017.5 hPa | 0 mm | - | 475 W/m² | - |
| 1777761932 | 22.22° C | 11% | 1017.6 hPa | 0 mm | - | 532 W/m² | - |
| 1777761032 | 21.67° C | 11% | 1017.7 hPa | 0 mm | - | 585 W/m² | - |
| 1777760132 | 21.67° C | 12% | 1018 hPa | 0 mm | - | 640 W/m² | - |
| 1777759232 | 22.22° C | 11% | 1018.2 hPa | 0 mm | - | 689 W/m² | - |
| 1777758332 | 21.11° C | 12% | 1018.4 hPa | 0 mm | - | 737 W/m² | - |
| 1777757432 | 20.56° C | 12% | 1018.6 hPa | 0 mm | - | 786 W/m² | - |
| 1777756532 | 20.56° C | 11% | 1019 hPa | 0 mm | - | 828 W/m² | - |
| 1777755632 | 20.56° C | 13% | 1019.1 hPa | 0 mm | - | 867 W/m² | - |
| 1777754732 | 20.56° C | 13% | 1019.2 hPa | 0 mm | - | 907 W/m² | - |
| 1777753832 | 20.56° C | 14% | 1019.3 hPa | 0 mm | - | 934 W/m² | - |
| 1777752932 | 20.56° C | 15% | 1019.5 hPa | 0 mm | - | 966 W/m² | - |
| 1777752032 | 19.44° C | 16% | 1019.6 hPa | 0 mm | - | 991 W/m² | - |
| 1777751132 | 19.44° C | 16% | 1019.7 hPa | 0 mm | - | 101 W/m² | - |
| 1777750232 | 18.89° C | 17% | 1019.9 hPa | 0 mm | - | 103 W/m² | - |
| 1777749332 | 18.33° C | 17% | 1020.2 hPa | 0 mm | - | 104 W/m² | - |
| 1777748432 | 17.78° C | 19% | 1020.4 hPa | 0 mm | - | 105 W/m² | - |
| 1777747532 | 17.78° C | 18% | 1020.6 hPa | 0 mm | - | 106 W/m² | - |
| 1777746632 | 17.78° C | 19% | 1020.8 hPa | 0 mm | - | 106 W/m² | - |
| 1777745732 | 17.22° C | 20% | 1020.9 hPa | 0 mm | - | 105 W/m² | - |
| 1777744832 | 16.11° C | 20% | 1021.1 hPa | 0 mm | - | 105 W/m² | - |
| 1777743932 | 16.67° C | 20% | 1021.4 hPa | 0 mm | - | 103 W/m² | - |
* Rain since midnight (hover to see other rain measurements)
** Current wind speed in m/s (hover to see current wind gust speed)